Location: *
(41.3833°S, 177.8333°W)
Time: 14:34:00
(UTC+00:00)

Daily predictions for brighter satellites

Satellite Brightness Start Highest point End
(mag) Time Altitude Azimuth Time Altitude Azimuth Time Altitude Azimuth
Cosmos 2034 Rocket 4.3 15:08:37 65° ESE 15:08:37 65° ESE 15:14:27 10° SSE
ALOS 4.3 15:12:58 10° NE 15:16:53 27° ESE 15:20:50 10° S
Lacrosse 5 2.9 15:25:34 41° ENE 15:25:34 41° ENE 15:28:55 10° NE
Meteor 1-11 Rocket 4.0 15:24:53 69° ENE 15:25:04 70° E 15:30:55 10° SSE
H-2A R/B 3.3 15:22:30 10° SSE 15:26:02 43° ESE 15:26:02 43° ESE
SL-16 R/B 2.3 15:30:30 70° SSE 15:30:30 70° SSE 15:35:34 10° SSE
CZ-4C R/B 3.3 15:28:26 40° N 15:31:19 61° ENE 15:38:28 10° SE
ATLAS 3B CENTAUR R/B 4.0 15:32:52 35° N 15:34:46 38° NNE 15:48:48 10° ENE
Meteor 1-13 Rocket 4.3 15:29:04 10° S 15:35:08 88° E 15:35:35 78° NNE
SL-16 R/B 3.7 15:35:04 10° S 15:38:50 29° SSW 15:38:50 29° SSW
Cosmos 1538 Rocket 4.2 15:42:45 66° S 15:42:45 66° S 15:47:31 10° SSE
Cosmos 2360 Rocket 3.0 15:40:07 31° NNE 15:42:28 48° ENE 15:47:57 10° SE
Cosmos 2322 Rocket 2.0 15:42:49 86° SW 15:42:49 86° SW 15:48:29 10° SSE
ATLAS CENTAUR R/B 2.6 15:45:27 35° SSE 15:45:27 35° SSE 15:47:59 10° SSE
USA 215 3.1 15:39:00 10° NE 15:45:35 74° NW 15:47:17 52° WSW
FENGYUN 3A 4.1 15:42:59 10° NNE 15:48:17 60° ESE 15:53:39 10° S
Cosmos 1980 Rocket 3.9 15:51:32 20° SSW 15:51:32 20° SSW 15:54:23 10° S
OAO 2 Rocket 4.2 15:50:55 38° NNE 15:50:55 38° NNE 15:54:56 10° ENE
OAO 3 Rocket 4.3 16:00:19 32° NNE 16:00:19 32° NNE 16:03:44 10° NE
METEOR-M 4.3 15:54:57 10° NNE 16:00:18 73° ESE 16:05:44 10° S
Atlas Centaur 2 4.0 16:02:02 13° N 16:02:02 13° N 16:03:05 10° NNE
ERBS 4.0 16:01:32 28° ENE 16:01:32 28° ENE 16:04:25 10° ESE
Cosmos 2195 Rocket 4.4 15:58:36 10° S 16:04:51 84° E 16:11:00 10° N
SL-08 R/B 4.2 16:04:17 10° S 16:07:27 34° SSW 16:07:27 34° SSW
Helios 1B 4.5 16:04:58 10° S 16:09:14 68° WSW 16:09:14 68° WSW
STARLINK-1129 3.7 16:11:36 63° SSW 16:12:11 78° SE 16:16:22 10° NE
STARLINK-1162 3.6 16:13:13 62° SW 16:13:52 82° SE 16:18:06 10° NE
Cosmos 405 Rocket 3.4 16:15:07 44° SSW 16:15:07 44° SSW 16:18:13 10° S
Cosmos 1908 Rocket 3.4 16:13:58 41° N 16:15:30 87° W 16:19:58 10° S
Meteor 1-23 Rocket 4.1 16:10:06 10° SSW 16:15:45 78° W 16:21:22 10° N
STARLINK-1134 3.6 16:16:22 59° SW 16:17:08 85° SE 16:21:20 10° NE
STARLINK-1157 3.6 16:18:01 56° SW 16:18:53 89° SE 16:23:06 10° NE
STARLINK-1234 4.3 16:20:05 29° NNE 16:20:24 30° NE 16:23:12 10° ESE
STARLINK-1135 3.5 16:21:09 53° SW 16:22:07 88° NW 16:26:19 10° NE
STARLINK-67 3.8 16:23:25 39° E 16:23:25 39° E 16:25:23 10° ESE
Cosmos 2112 Rocket 4.3 16:18:06 10° N 16:23:19 71° ENE 16:28:43 10° SSE
Cosmos 1378 Rocket 3.5 16:18:59 10° SSW 16:23:20 60° W 16:27:36 10° N
STARLINK-1159 3.5 16:22:48 50° WSW 16:23:50 84° NW 16:28:04 10° NE
Intercosmos 24 4.2 16:20:29 10° NNW 16:26:13 71° W 16:30:21 10° S
STARLINK-1141 3.5 16:25:58 47° WSW 16:27:07 81° NW 16:31:19 10° NE
DELTA 2 R/B (1) 3.9 16:26:00 38° WNW 16:27:36 48° NNW 16:32:59 10° NE
STARLINK-1171 3.5 16:27:35 45° WSW 16:28:49 77° NW 16:33:02 10° NE
Cosmos 2237 4.1 16:25:40 26° NW 16:28:57 72° WSW 16:34:45 10° SSE
Cosmos 1092 Rocket 4.1 16:22:55 10° SSW 16:29:03 54° W 16:35:11 10° NNW
Lacrosse 4 Rocket 2.3 16:25:26 10° SSW 16:29:25 48° ESE 16:33:24 10° NE
Cosmos 1066 Rocket 4.1 16:24:48 10° SSW 16:30:17 63° W 16:35:51 10° N
SAR-Lupe-4 3.6 16:27:03 10° S 16:30:40 58° WSW 16:30:57 56° W
Okean O Rocket 2.5 16:27:08 10° NNE 16:31:30 52° ESE 16:35:56 10° S
STARLINK-1140 3.5 16:30:43 41° WSW 16:32:04 74° NW 16:36:14 10° NE
STARLINK-1155 3.6 16:32:23 40° WSW 16:33:48 71° NW 16:38:00 10° NE
ISS -1.7 16:34:52 18° SSW 16:35:23 18° SSW 16:37:52 10° SSE
CZ-4B R/B 4.5 16:37:28 23° SW 16:37:28 23° SW 16:39:33 10° SSW
STARLINK-1156 3.6 16:35:30 37° WSW 16:37:03 68° NW 16:41:12 10° NE
STARLINK-1166 3.6 16:37:11 35° WSW 16:38:47 64° NW 16:42:57 10° NE
STARLINK-1228 3.3 16:38:47 39° N 16:39:28 51° NE 16:42:20 10° ESE
COSMOS 2428 3.8 16:34:08 10° N 16:39:31 45° ENE 16:44:58 10° SE
STARLINK-1209 3.3 16:39:13 38° N 16:39:58 52° NE 16:42:51 10° ESE
Cosmos 1378 3.1 16:36:21 10° S 16:40:09 86° E 16:43:53 10° N
STARLINK-1148 3.6 16:40:17 33° WSW 16:42:00 61° NW 16:46:08 10° NE
Cosmos 1634 Rocket 4.1 16:37:30 10° NNW 16:43:34 51° WSW 16:49:45 10° S
STARLINK-1165 3.7 16:41:57 31° WSW 16:43:44 58° NW 16:47:52 10° NE
Cosmos 2322 3.7 16:39:04 10° NNW 16:44:49 87° ENE 16:50:36 10° SSE
PSLV R/B 4.1 16:41:20 10° N 16:45:06 44° W 16:48:52 10° SSW
Cosmos 2219 Rocket 2.9 16:39:40 10° N 16:45:07 54° ENE 16:50:39 10° SSE
STARLINK-1158 3.7 16:45:04 29° WSW 16:46:58 56° NW 16:51:04 10° NE
Cosmos 2026 Rocket 4.1 16:42:26 10° SSW 16:48:39 53° W 16:54:44 10° NNW
STARLINK-1169 3.8 16:46:45 28° WSW 16:48:42 53° NW 16:52:48 10° NNE
Cosmos 2333 4.3 16:43:02 10° NNW 16:48:45 85° ENE 16:54:35 10° SSE
Cosmos 2056 Rocket 4.1 16:44:40 10° SSW 16:50:06 63° ESE 16:55:30 10° NNE
SL-8 R/B 4.1 16:47:51 26° W 16:50:20 53° SSW 16:55:09 10° ESE
Cosmos 1655 Rocket 4.3 16:44:08 10° S 16:50:36 75° E 16:57:01 10° NNE
STARLINK-1178 3.9 16:51:33 25° WSW 16:53:41 48° NW 16:57:44 10° NNE
ALOS 2.9 16:49:57 10° NNW 16:54:10 32° W 16:58:25 10° SSW
EXPRESS MD2 3.7 16:53:22 22° WSW 16:55:43 73° NNW 17:02:41 10° NE
CZ-4B R/B 1.6 16:53:36 10° S 16:56:46 46° WSW 16:59:27 13° NW
SJ-7 4.3 16:53:30 10° N 16:57:35 83° WNW 17:01:48 10° SSW
Cosmos 1975 Rocket 2.9 16:53:44 10° SSW 16:58:09 74° W 17:02:29 10° N
STARLINK-1120 4.1 16:56:20 22° WSW 16:58:38 43° NW 17:02:38 10° NNE
TELKOM 3 3.6 16:57:46 33° W 16:58:45 54° NW 17:02:03 10° NE
Cosmos 1844 Rocket 2.6 16:54:57 10° SSW 17:00:33 70° WNW 17:06:07 10° NNE
Cosmos 1743 3.4 16:58:43 16° NW 17:01:18 33° WSW 17:04:55 10° S
Okean 2 3.4 16:57:44 10° SSW 17:01:59 67° W 17:06:09 10° N
H-2A R/B 3.7 16:59:32 10° SSW 17:02:32 17° WSW 17:03:07 17° WSW
Cosmos 2266 Rocket 4.5 16:56:38 10° S 17:02:47 65° E 17:08:57 10° NNE
STARLINK-1131 4.2 17:01:08 20° WSW 17:03:37 39° NW 17:07:32 10° NNE
Cosmos 1842 3.3 16:59:39 10° S 17:03:38 84° E 17:07:32 10° N
SMAP 3.7 17:00:54 10° NNE 17:05:31 62° ESE 17:10:12 10° S
BREEZE M DEB (TANK) 4.1 17:02:38 19° W 17:05:55 81° SSW 17:33:52 10° ESE
Lacrosse 5 3.2 17:04:52 18° W 17:06:18 20° WNW 17:09:58 10° NNW
Cosmos 158 Rocket 4.0 17:02:36 10° NW 17:07:24 52° WSW 17:12:14 10° S
USA 229 DEB 4.1 17:00:34 10° SSW 17:07:26 66° SE 17:13:56 10° NE
USA 229 4.1 17:00:41 10° SSW 17:07:34 66° SE 17:14:02 10° NE
Cosmos 2292 Rocket 4.4 17:04:00 10° S 17:07:42 53° E 17:12:25 10° NNE
STARLINK-1190 4.3 17:05:55 18° WSW 17:08:34 36° NW 17:12:25 10° NNE
NOAA 6 4.2 17:04:28 10° N 17:09:31 53° W 17:14:40 10° SSW
Delta 2 Rocket 4.5 17:06:36 16° WNW 17:10:12 40° N 17:14:30 10° ENE
CZ-3 R/B 3.6 16:52:42 16° WNW 17:10:13 43° NNW 17:17:05 10° NE
Helios 1A Rocket 3.1 17:06:59 10° NNE 17:11:05 79° ESE 17:15:16 10° S
SL-16 R/B 3.9 17:12:24 13° WSW 17:14:43 16° SW 17:18:12 10° S
NOSS 3-1 (A) 4.3 17:10:39 10° SSW 17:16:54 50° SE 17:22:16 10° ENE
STARLINK-1203 4.2 17:15:24 10° NW 17:19:25 56° NE 17:23:28 10° ESE
CZ-4C R/B 3.5 17:13:41 12° WNW 17:20:18 37° SW 17:26:39 10° SSE
Cosmos 2333 Rocket 2.2 17:14:43 10° NNW 17:20:26 75° WSW 17:26:16 10° SSE
STARLINK-1246 4.4 17:18:28 10° NNW 17:22:33 54° NE 17:26:40 10° ESE
Cosmos 1437 Rocket 4.1 17:20:22 10° SW 17:23:20 20° W 17:26:19 10° NW
Cosmos 1680 Rocket 4.4 17:18:43 10° WNW 17:23:24 31° WSW 17:28:10 10° S
ATLAS CENTAUR R/B 3.4 17:21:48 10° WSW 17:23:30 12° SW 17:25:14 10° SSW
Cosmos 2360 Rocket 3.2 17:21:58 10° WNW 17:26:43 26° SW 17:31:30 10° S
Radarsat Rocket 4.2 17:21:09 10° N 17:26:58 52° W 17:33:24 10° SSW
STARLINK-1224 4.2 17:23:20 10° NW 17:27:26 59° NE 17:31:34 10° ESE
GP-B 4.3 17:23:10 10° NNE 17:27:28 49° E 17:31:51 10° S
Cosmos 2322 Rocket 3.9 17:24:40 10° W 17:27:41 15° SW 17:30:53 10° SSW
STARLINK-1201 3.0 17:27:13 10° WNW 17:30:30 69° SW 17:33:47 10° SE
STARLINK-1233 3.0 17:27:57 10° WNW 17:31:06 63° SW 17:34:15 10° SE
STARLINK-1212 3.0 17:28:22 10° WNW 17:31:32 62° SW 17:34:42 10° SE
Cosmos 1975 3.8 17:28:17 10° NW 17:31:53 29° WSW 17:35:34 10° SSW
STARLINK-1105 3.0 17:28:51 10° WNW 17:31:59 61° SW 17:35:09 10° SE
STARLINK-1206 3.0 17:29:17 10° WNW 17:32:26 61° SW 17:35:37 10° SE
STARLINK-1225 4.0 17:28:24 10° NW 17:32:33 66° NE 17:36:44 10° ESE
STARLINK-1247 3.0 17:29:43 10° WNW 17:32:52 60° SW 17:36:02 10° SE
STARLINK-1227 3.0 17:30:12 10° WNW 17:33:20 60° SW 17:36:30 10° SE
CORIOLIS 4.2 17:28:01 10° NNE 17:33:25 87° WNW 17:38:52 10° SSW
NOAA 12 4.3 17:28:26 10° NNE 17:33:41 82° ESE 17:39:02 10° SSW
STARLINK-1218 3.0 17:30:38 10° WNW 17:33:46 59° SW 17:36:56 10° SE
STARLINK-1226 3.0 17:31:06 10° WNW 17:34:14 58° SW 17:37:24 10° SE
STARLINK-1254 3.1 17:31:34 10° WNW 17:34:41 58° SW 17:37:50 10° SE
STARLINK-1215 3.1 17:31:59 10° WNW 17:35:08 57° SW 17:38:18 10° SE
STARLINK-1231 3.1 17:32:27 10° WNW 17:35:35 57° SW 17:38:44 10° SE
STARLINK-1232 3.1 17:33:21 10° WNW 17:36:29 56° SW 17:39:39 10° SE
STARLINK-1217 3.1 17:33:49 10° WNW 17:36:57 55° SW 17:40:06 10° SE
STARLINK-1208 3.1 17:34:18 10° WNW 17:37:24 54° SW 17:40:33 10° SE
STARLINK-1230 3.9 17:33:21 10° NW 17:37:31 72° NE 17:41:44 10° SE
ERBS 3.5 17:34:45 10° W 17:37:43 27° SW 17:40:43 10° SSE
STARLINK-1229 3.1 17:34:41 10° WNW 17:37:48 54° SW 17:40:57 10° SE
STARLINK-1271 3.2 17:35:10 10° WNW 17:38:17 53° SW 17:41:26 10° SE
STARLINK-1270 3.2 17:35:38 10° WNW 17:38:45 53° SW 17:41:54 10° SE
STARLINK-1154 3.2 17:36:05 10° WNW 17:39:11 52° SW 17:42:21 10° SE
STARLINK-1197 3.2 17:36:59 10° WNW 17:40:04 51° SW 17:43:14 10° SE
AQUARIUS 4.2 17:35:50 10° N 17:40:18 64° WNW 17:44:52 10° SSW
STARLINK-1189 3.2 17:37:26 10° WNW 17:40:32 51° SW 17:43:40 10° SE
STARLINK-1198 3.2 17:37:52 10° WNW 17:40:58 50° SSW 17:44:05 10° SE
STARLINK-1187 3.4 17:38:22 10° WNW 17:41:26 44° SSW 17:44:30 10° SE
STARLINK-1188 3.2 17:38:21 10° WNW 17:41:27 50° SW 17:44:35 10° SE
STARLINK-1235 3.6 17:39:10 10° WNW 17:42:10 39° SSW 17:45:11 10° SE
STARLINK-1243 3.8 17:38:16 10° NW 17:42:26 79° NE 17:46:41 10° SE
STARLINK-1118 2.3 17:40:41 10° SW 17:42:43 56° SE 17:44:42 10° ENE
Cosmos 2237 Rocket 3.0 17:37:26 10° N 17:43:01 59° ENE 17:48:41 10° SSE
STARLINK-1199 3.3 17:40:20 10° WNW 17:43:25 48° SW 17:46:32 10° SE
STARLINK-1191 3.3 17:40:49 10° WNW 17:43:53 47° SSW 17:46:59 10° SE
STARLINK-1210 3.3 17:41:16 10° WNW 17:44:21 47° SSW 17:47:27 10° SE
STARLINK-1221 3.3 17:41:43 10° WNW 17:44:47 46° SSW 17:47:52 10° SE
CZ-4B R/B 4.0 17:41:47 10° NNW 17:46:46 31° W 17:51:49 10° SW
Meteor 1-12 Rocket 4.3 17:41:12 10° NNW 17:46:57 71° W 17:52:42 10° S
NOSS 3-1 (C) 3.3 17:41:44 10° SW 17:47:54 66° WNW 17:53:16 10° NNE
